sat.trackr.live / text

‹ back to catalog

STARLINK-38001

NORAD 69828 · 2026-154K

PAYLOAD ACTIVE UNKNOWN

§ Identity

Operator
Country
US
Launch date
2026-07-05
Launch site
AFETR
Launch vehicle
Mass (kg)
RCS (m²)

Purposes: comms

External: N2YO · Heavens-Above · Gunter

§ Orbital elements

Epoch: 2026-09-19T19:58:06.826944Z

Period
93.85 min
Inclination
53.1576°
Eccentricity
0.0003076
Mean motion
15.34388355 rev/d
Perigee alt
460.6 km
Apogee alt
464.8 km
Semi-major
6,840.9 km
B*
1.1305e-4
RAAN
335.0118°
Arg perigee
19.8436°
Mean anomaly
340.2686°
Rev number
1,313

§ Raw data

STARLINK-380011 69828U 26154K   26262.83202346  .00003443  00000+0  11305-3 0  99932 69828  53.1576 335.0118 0003076  19.8436 340.2686 15.34388355 13132

JSON: /api/v1/satellites/69828 · /tle

For live sub-satellite position, see the globe view (requires WebGL).

§ Visibility from observer

Set your observer location to see the next 7 days of passes ≥ 10°. The values pass through the URL so the page stays shareable.

No JS? Fill the form by hand. The geolocation button needs JavaScript.